Terminal Aerodrome Forecast
Issued by NWS

Home | Current Version | Previous Version | Text Only | Print | Product List | Glossary On
Versions: 1 2 3 4 5 6 7 8 9 10 11 12 13 14 15 16 17 18 19 20
000
FTUS41 KALY 032045 AAA
TAFPSF
TAF AMD
KPSF 032045Z 0321/0418 32007KT P6SM SCT080
      TEMPO 0321/0322 BKN070
     FM040100 00000KT P6SM SKC
     FM041400 24008G14KT P6SM SCT060=

USA.gov is the U.S. government's official web portal to all federal, state and local government web resources and services.